Home   Weather   Modena   Past weeks

Flag for Italy Past Weather in Modena, Italy — Yesterday and Last 2 Weeks

Now
39 °F

Fog.


Feels Like: 36 °F
Forecast: 38 / 45 °F
Wind: 5 mph from Northeast

Location: Bologna / Borgo Panigale

Current Time: Dec 2, 2016 at 8:55:19 pm

Latest Report: Dec 2, 2016 at 8:20 pm


Visibility: 3 mi

Pressure: 30.01 "Hg

Humidity: 93%

Dew Point: 37 °F

Location of ModenaLocation

Past Weather in Modena — Graph

°F

Modena Temperature Yesterday

Maximum temperature yesterday: 50 °F (at 12:20 pm)
Minimum temperature yesterday: 32 °F (at 12:20 am)
Average temperature yesterday: 40 °F

High & Low Weather Summary for the Past Weeks

 TemperatureHumidityPressure
High61 °F (Nov 25, 10:50 am)100% (Nov 18, 1:20 am)30.54 "Hg (Nov 18, 1:20 am)
Low28 °F (Nov 30, 5:50 am)39% (Nov 29, 12:20 pm)29.83 "Hg (Nov 19, 1:50 pm)
Average48 °F88%30.09 "Hg
* Reported Nov 17 7:20 pm — Dec 2 7:20 pm, Modena, Weather by CustomWeather, © 2016

Note: Actual official high and low records may vary slightly from our data, if they occured in-between our weather recording intervals... More about our weather records

Advertising

Modena Weather History for the Previous 24 Hours

Scroll right to see more
 ConditionsComfort  
Time TempWeatherWind HumidityBarometerVisibility
7:20 pm
Fri, Dec 2
43 °FClear.5 mph81%30.01 "Hg4 mi
6:50 pm43 °FClear.6 mph87%29.98 "Hg4 mi
6:20 pm43 °FClear.6 mph87%29.98 "Hg4 mi
5:50 pm43 °FClear.5 mph87%29.98 "Hg4 mi
5:20 pm45 °FClear.5 mph81%29.95 "Hg4 mi
4:50 pm46 °FClear.7 mph82%29.95 "Hg4 mi
4:20 pm50 °FSunny.3 mph76%29.95 "Hg10 mi
3:50 pm52 °FSunny.5 mph72%29.92 "Hg10 mi
3:20 pm54 °FSunny.5 mph67%29.92 "Hg10 mi
2:50 pm54 °FPassing clouds.5 mph67%29.92 "HgN/A
2:20 pm54 °FPassing clouds.5 mph63%29.92 "HgN/A
1:50 pm54 °FSunny.2 mph63%29.92 "Hg10 mi
1:20 pm54 °FPassing clouds.3 mph67%29.92 "HgN/A
12:50 pm54 °FPassing clouds.3 mph67%29.95 "HgN/A
12:20 pm54 °FPassing clouds.3 mph67%29.95 "HgN/A
11:50 am52 °FPassing clouds.5 mph67%29.95 "HgN/A
11:20 am52 °FPassing clouds.5 mph67%29.95 "HgN/A
10:50 am52 °FSunny.1 mph67%29.95 "Hg10 mi
10:20 am50 °FPassing clouds.3 mph71%29.95 "HgN/A
9:50 am46 °FSunny.3 mph82%29.95 "Hg10 mi
9:20 am41 °FSunny.3 mph93%29.95 "Hg10 mi
8:50 am37 °FSunny.2 mph87%29.95 "Hg10 mi
8:20 am36 °FSunny.1 mph93%29.95 "Hg10 mi
7:50 am36 °FSunny.3 mph93%29.95 "Hg10 mi
7:20 am34 °FClear.2 mph93%29.95 "Hg10 mi
6:50 am36 °FClear.3 mph87%29.95 "Hg10 mi
6:20 am32 °FClear.2 mph93%29.95 "Hg10 mi
5:50 am32 °FClear.1 mph93%29.95 "Hg10 mi
5:20 am32 °FClear.1 mph93%29.98 "Hg10 mi
4:50 am34 °FClear.3 mph93%29.98 "Hg10 mi
4:20 am34 °FClear.2 mph93%29.98 "Hg10 mi
3:50 am34 °FClear.3 mph93%29.98 "Hg10 mi
3:20 am34 °FClear.3 mph93%30.01 "Hg10 mi
2:50 am32 °FClear.2 mph100%30.01 "Hg10 mi
2:20 am34 °FClear.1 mph93%30.04 "Hg10 mi
1:50 am34 °FClear.2 mph93%30.04 "Hg10 mi
1:20 am32 °FClear.2 mph93%30.04 "Hg10 mi
12:50 am36 °FClear.2 mph87%30.04 "Hg10 mi
12:20 am34 °FClear.1 mph93%30.07 "Hg10 mi
11:50 pm
Thu, Dec 1
36 °FClear.2 mph87%30.07 "Hg10 mi
11:20 pm36 °FClear.5 mph93%30.07 "Hg10 mi
10:50 pm36 °FClear.3 mph93%30.07 "Hg10 mi
10:20 pm37 °FClear.3 mph87%30.07 "Hg10 mi
9:50 pm37 °FClear.2 mph87%30.09 "Hg10 mi
9:20 pm39 °FClear.5 mph81%30.09 "Hg10 mi
8:50 pm37 °FClear.5 mph87%30.09 "Hg10 mi
8:20 pm37 °FClear.2 mph87%30.12 "Hg10 mi
Weather by CustomWeather, © 2016

See weather overviewHow to use our weather pages